| time (UTC) | temp F | wind direction | speed MPH | gust MPH | rain 1hr in | rain 24hr in | rain mn in | humidity % | barometer mb |
| 20260507210704 | 70 | 208 | 2.0 | 8.0 | 0.00 | 0.00 | 0.00 | 42 | 1014.4 |
| 20260507210203 | 70 | 235 | 3.0 | 5.0 | 0.00 | 0.00 | 0.00 | 41 | 1014.4 |
| 20260507205703 | 69 | 216 | 1.0 | 3.0 | 0.00 | 0.00 | 0.00 | 41 | 1014.5 |
| 20260507204204 | 69 | 271 | 2.0 | 3.0 | 0.00 | 0.00 | 0.00 | 42 | 1014.8 |
| 20260507203703 | 69 | 204 | 0.0 | 9.0 | 0.00 | 0.00 | 0.00 | 42 | 1014.8 |
| 20260507202704 | 69 | 278 | 2.0 | 5.0 | 0.00 | 0.00 | 0.00 | 43 | 1015.0 |
| 20260507202203 | 68 | 186 | 1.0 | 3.0 | 0.00 | 0.00 | 0.00 | 41 | 1015.0 |
| 20260507201703 | 68 | 243 | 1.0 | 3.0 | 0.00 | 0.00 | 0.00 | 42 | 1015.1 |
| 20260507200704 | 68 | 312 | 1.0 | 3.0 | 0.00 | 0.00 | 0.00 | 40 | 1015.3 |
| 20260507200204 | 67 | 196 | 1.0 | 3.0 | 0.00 | 0.00 | 0.00 | 42 | 1015.3 |
| 20260507195203 | 67 | 243 | 2.0 | 5.0 | 0.00 | 0.00 | 0.00 | 41 | 1015.5 |
| 20260507194703 | 67 | 236 | 5.0 | 9.0 | 0.00 | 0.00 | 0.00 | 41 | 1015.6 |
| 20260507193704 | 67 | 195 | 3.0 | 8.0 | 0.00 | 0.00 | 0.00 | 40 | 1015.7 |
| 20260507193203 | 68 | 268 | 2.0 | 9.0 | 0.00 | 0.00 | 0.00 | 43 | 1015.8 |
| 20260507192704 | 67 | 184 | 1.0 | 3.0 | 0.00 | 0.00 | 0.00 | 40 | 1015.9 |
| 20260507192204 | 67 | 74 | 3.0 | 6.0 | 0.00 | 0.00 | 0.00 | 40 | 1015.8 |
| 20260507191703 | 66 | 282 | 1.0 | 3.0 | 0.00 | 0.00 | 0.00 | 41 | 1015.9 |
| 20260507191203 | 66 | 302 | 3.0 | 12.0 | 0.00 | 0.00 | 0.00 | 44 | 1015.9 |
| 20260507190703 | 66 | 271 | 3.0 | 9.0 | 0.00 | 0.00 | 0.00 | 40 | 1016.0 |
| 20260507190204 | 66 | 225 | 5.0 | 13.0 | 0.00 | 0.00 | 0.00 | 38 | 1016.0 |
| 20260507185704 | 67 | 232 | 2.0 | 9.0 | 0.00 | 0.00 | 0.00 | 40 | 1016.0 |
| 20260507185203 | 67 | 198 | 1.0 | 10.0 | 0.00 | 0.00 | 0.00 | 42 | 1016.0 |
| 20260507184704 | 66 | 145 | 1.0 | 7.0 | 0.00 | 0.00 | 0.00 | 42 | 1016.0 |
| 20260507184204 | 66 | 202 | 2.0 | 8.0 | 0.00 | 0.00 | 0.00 | 40 | 1016.2 |
| 20260507183704 | 66 | 149 | 3.0 | 6.0 | 0.00 | 0.00 | 0.00 | 39 | 1016.2 |
| 20260507183203 | 66 | 264 | 1.0 | 5.0 | 0.00 | 0.00 | 0.00 | 39 | 1016.3 |
| 20260507182703 | 66 | 231 | 2.0 | 7.0 | 0.00 | 0.00 | 0.00 | 40 | 1016.3 |
| 20260507182204 | 65 | 230 | 3.0 | 6.0 | 0.00 | 0.00 | 0.00 | 41 | 1016.5 |
| 20260507181704 | 65 | 263 | 4.0 | 8.0 | 0.00 | 0.00 | 0.00 | 43 | 1016.4 |
| 20260507181204 | 65 | 243 | 2.0 | 7.0 | 0.00 | 0.00 | 0.00 | 43 | 1016.6 |
| 20260507180204 | 65 | 227 | 3.0 | 6.0 | 0.00 | 0.00 | 0.00 | 45 | 1016.8 |
| 20260507175704 | 65 | 292 | 2.0 | 3.0 | 0.00 | 0.00 | 0.00 | 44 | 1016.8 |
| 20260507175204 | 65 | 176 | 2.0 | 7.0 | 0.00 | 0.00 | 0.00 | 42 | 1017.0 |
| 20260507174704 | 65 | 242 | 2.0 | 6.0 | 0.00 | 0.00 | 0.00 | 45 | 1017.1 |
| 20260507174204 | 65 | 226 | 1.0 | 3.0 | 0.00 | 0.00 | 0.00 | 48 | 1017.2 |
| 20260507173203 | 65 | 253 | 3.0 | 7.0 | 0.00 | 0.00 | 0.00 | 42 | 1017.3 |
| 20260507172704 | 65 | 146 | 2.0 | 3.0 | 0.00 | 0.00 | 0.00 | 43 | 1017.4 |
| 20260507172204 | 65 | 132 | 2.0 | 3.0 | 0.00 | 0.00 | 0.00 | 46 | 1017.4 |
| 20260507171204 | 65 | 201 | 3.0 | 5.0 | 0.00 | 0.00 | 0.00 | 42 | 1017.6 |
| 20260507170704 | 64 | 162 | 1.0 | 7.0 | 0.00 | 0.00 | 0.00 | 43 | 1017.7 |
| 20260507170204 | 64 | 156 | 2.0 | 5.0 | 0.00 | 0.00 | 0.00 | 45 | 1017.7 |
| 20260507165704 | 63 | 212 | 2.0 | 5.0 | 0.00 | 0.00 | 0.00 | 45 | 1017.7 |
| 20260507164704 | 64 | 132 | 1.0 | 5.0 | 0.00 | 0.00 | 0.00 | 50 | 1017.9 |
| 20260507164204 | 64 | 273 | 1.0 | 5.0 | 0.00 | 0.00 | 0.00 | 48 | 1018.0 |
| 20260507163204 | 63 | 54 | 1.0 | 7.0 | 0.00 | 0.00 | 0.00 | 47 | 1018.1 |
| 20260507162704 | 63 | 214 | 1.0 | 3.0 | 0.00 | 0.00 | 0.00 | 44 | 1018.1 |
| 20260507162204 | 62 | 132 | 1.0 | 6.0 | 0.00 | 0.00 | 0.00 | 43 | 1018.2 |
| 20260507161704 | 62 | 236 | 0.0 | 1.0 | 0.00 | 0.00 | 0.00 | 47 | 1018.4 |
| 20260507161204 | 62 | 127 | 3.0 | 6.0 | 0.00 | 0.00 | 0.00 | 46 | 1018.4 |
| 20260507160703 | 62 | 164 | 2.0 | 3.0 | 0.00 | 0.00 | 0.00 | 48 | 1018.4 |
| 20260507160204 | 62 | 177 | 1.0 | 6.0 | 0.00 | 0.00 | 0.00 | 50 | 1018.5 |
| 20260507155704 | 62 | 184 | 1.0 | 5.0 | 0.00 | 0.00 | 0.00 | 50 | 1018.5 |
| 20260507154703 | 62 | 49 | 1.0 | 3.0 | 0.00 | 0.00 | 0.00 | 50 | 1018.5 |
| 20260507154203 | 62 | 189 | 2.0 | 3.0 | 0.00 | 0.00 | 0.00 | 49 | 1018.5 |
| 20260507153704 | 61 | 193 | 0.0 | 2.0 | 0.00 | 0.00 | 0.00 | 49 | 1018.5 |
| 20260507153203 | 60 | 100 | 0.0 | 2.0 | 0.00 | 0.00 | 0.00 | 50 | 1018.4 |
| 20260507152703 | 60 | 199 | 3.0 | 6.0 | 0.00 | 0.00 | 0.00 | 47 | 1018.5 |
| 20260507152204 | 60 | 212 | 2.0 | 3.0 | 0.00 | 0.00 | 0.00 | 47 | 1018.4 |
| 20260507151704 | 59 | 226 | 1.0 | 3.0 | 0.00 | 0.00 | 0.00 | 52 | 1018.4 |
| 20260507151203 | 59 | 66 | 1.0 | 3.0 | 0.00 | 0.00 | 0.00 | 53 | 1018.4 |
| 20260507150703 | 59 | 229 | 1.0 | 3.0 | 0.00 | 0.00 | 0.00 | 53 | 1018.5 |
| 20260507150204 | 59 | 116 | 1.0 | 3.0 | 0.00 | 0.00 | 0.00 | 54 | 1018.6 |
| 20260507145704 | 58 | 142 | 2.0 | 3.0 | 0.00 | 0.00 | 0.00 | 52 | 1018.6 |
| 20260507144704 | 58 | 204 | 1.0 | 3.0 | 0.00 | 0.00 | 0.00 | 52 | 1018.8 |
| 20260507144204 | 58 | 207 | 1.0 | 3.0 | 0.00 | 0.00 | 0.00 | 55 | 1018.8 |
| 20260507143704 | 58 | 213 | 0.0 | 2.0 | 0.00 | 0.00 | 0.00 | 56 | 1018.8 |
| 20260507143203 | 57 | 34 | 1.0 | 3.0 | 0.00 | 0.00 | 0.00 | 56 | 1018.7 |
| 20260507142204 | 56 | 199 | 0.0 | 3.0 | 0.00 | 0.00 | 0.00 | 61 | 1018.8 |
| 20260507141704 | 55 | 180 | 1.0 | 5.0 | 0.00 | 0.00 | 0.00 | 61 | 1018.7 |
| 20260507141204 | 55 | 168 | 1.0 | 2.0 | 0.00 | 0.00 | 0.00 | 62 | 1018.8 |
| 20260507140703 | 54 | 186 | 3.0 | 5.0 | 0.00 | 0.00 | 0.00 | 60 | 1018.9 |
| 20260507140204 | 54 | 211 | 1.0 | 3.0 | 0.00 | 0.00 | 0.00 | 61 | 1019.0 |
| 20260507135704 | 54 | 197 | 1.0 | 6.0 | 0.00 | 0.00 | 0.00 | 65 | 1018.9 |
| 20260507135203 | 54 | 209 | 0.0 | 3.0 | 0.00 | 0.00 | 0.00 | 63 | 1018.8 |
| 20260507134204 | 53 | 210 | 0.0 | 1.0 | 0.00 | 0.00 | 0.00 | 68 | 1018.9 |
| 20260507133704 | 52 | 195 | 2.0 | 3.0 | 0.00 | 0.00 | 0.00 | 64 | 1018.9 |
| 20260507133203 | 52 | 226 | 1.0 | 3.0 | 0.00 | 0.00 | 0.00 | 66 | 1018.7 |
| 20260507132703 | 52 | 208 | 1.0 | 2.0 | 0.00 | 0.00 | 0.00 | 68 | 1018.8 |
| 20260507132204 | 52 | 197 | 1.0 | 2.0 | 0.00 | 0.00 | 0.00 | 65 | 1018.7 |
| 20260507131704 | 52 | 200 | 0.0 | 0.0 | 0.00 | 0.00 | 0.00 | 69 | 1018.7 |
| 20260507131203 | 51 | 191 | 0.0 | 0.0 | 0.00 | 0.00 | 0.00 | 72 | 1018.6 |
| 20260507130704 | 50 | 191 | 0.0 | 0.0 | 0.00 | 0.00 | 0.00 | 71 | 1018.7 |
| 20260507125703 | 50 | 187 | 0.0 | 1.0 | 0.00 | 0.00 | 0.00 | 70 | 1018.8 |
| 20260507125204 | 50 | 210 | 0.0 | 1.0 | 0.00 | 0.00 | 0.00 | 73 | 1018.9 |
| 20260507124704 | 49 | 210 | 0.0 | 1.0 | 0.00 | 0.00 | 0.00 | 74 | 1018.7 |
| 20260507124203 | 48 | 210 | 0.0 | 1.0 | 0.00 | 0.00 | 0.00 | 74 | 1018.6 |
| 20260507123703 | 48 | 212 | 0.0 | 0.0 | 0.00 | 0.00 | 0.00 | 80 | 1018.7 |
| 20260507123204 | 47 | 212 | 0.0 | 0.0 | 0.00 | 0.00 | 0.00 | 84 | 1018.7 |
| 20260507122705 | 45 | 212 | 0.0 | 0.0 | 0.00 | 0.00 | 0.00 | 86 | 1018.6 |
| 20260507122204 | 43 | 212 | 0.0 | 0.0 | 0.00 | 0.00 | 0.00 | 88 | 1018.8 |
| 20260507121704 | 41 | 212 | 0.0 | 0.0 | 0.00 | 0.00 | 0.00 | 88 | 1018.7 |
| 20260507121204 | 40 | 212 | 0.0 | 0.0 | 0.00 | 0.00 | 0.00 | 89 | 1018.6 |
| 20260507120703 | 40 | 212 | 0.0 | 0.0 | 0.00 | 0.00 | 0.00 | 89 | 1018.5 |
| 20260507120203 | 40 | 212 | 0.0 | 0.0 | 0.00 | 0.00 | 0.00 | 90 | 1018.5 |
| 20260507115704 | 40 | 212 | 0.0 | 0.0 | 0.00 | 0.00 | 0.00 | 89 | 1018.4 |
| 20260507115204 | 40 | 212 | 0.0 | 0.0 | 0.00 | 0.00 | 0.00 | 90 | 1018.3 |
| 20260507114703 | 40 | 212 | 0.0 | 0.0 | 0.00 | 0.00 | 0.00 | 89 | 1018.3 |
| 20260507114204 | 40 | 212 | 0.0 | 0.0 | 0.00 | 0.00 | 0.00 | 90 | 1018.3 |
| 20260507113703 | 40 | 213 | 0.0 | 0.0 | 0.00 | 0.00 | 0.00 | 89 | 1018.2 |
| 20260507113203 | 40 | 212 | 0.0 | 0.0 | 0.00 | 0.00 | 0.00 | 89 | 1018.1 |
| 20260507112704 | 41 | 212 | 0.0 | 0.0 | 0.00 | 0.00 | 0.00 | 89 | 1018.2 |
| 20260507111703 | 41 | 212 | 0.0 | 0.0 | 0.00 | 0.00 | 0.00 | 89 | 1018.0 |
| 20260507111203 | 41 | 212 | 0.0 | 0.0 | 0.00 | 0.00 | 0.00 | 89 | 1018.0 |
| 20260507110204 | 41 | 212 | 0.0 | 0.0 | 0.00 | 0.00 | 0.00 | 88 | 1017.8 |
| 20260507105703 | 40 | 212 | 0.0 | 0.0 | 0.00 | 0.00 | 0.00 | 87 | 1017.8 |
| 20260507105204 | 40 | 213 | 0.0 | 0.0 | 0.00 | 0.00 | 0.00 | 88 | 1017.9 |
| 20260507104704 | 40 | 212 | 0.0 | 0.0 | 0.00 | 0.00 | 0.00 | 89 | 1017.9 |
| 20260507104204 | 40 | 212 | 0.0 | 0.0 | 0.00 | 0.00 | 0.00 | 90 | 1017.8 |
| 20260507103704 | 40 | 212 | 0.0 | 0.0 | 0.00 | 0.00 | 0.00 | 90 | 1017.6 |
| 20260507103204 | 40 | 212 | 0.0 | 0.0 | 0.00 | 0.00 | 0.00 | 88 | 1017.7 |
| 20260507102703 | 39 | 212 | 0.0 | 0.0 | 0.00 | 0.00 | 0.00 | 88 | 1017.8 |
| 20260507102204 | 39 | 213 | 0.0 | 0.0 | 0.00 | 0.00 | 0.00 | 89 | 1017.9 |
| 20260507101703 | 39 | 212 | 0.0 | 0.0 | 0.00 | 0.00 | 0.00 | 90 | 1017.9 |
| 20260507100704 | 39 | 212 | 0.0 | 0.0 | 0.00 | 0.00 | 0.00 | 91 | 1017.7 |
| 20260507100204 | 39 | 212 | 0.0 | 0.0 | 0.00 | 0.00 | 0.00 | 91 | 1017.7 |
| 20260507095704 | 38 | 212 | 0.0 | 0.0 | 0.00 | 0.00 | 0.00 | 90 | 1017.9 |
| 20260507095204 | 38 | 212 | 0.0 | 0.0 | 0.00 | 0.00 | 0.00 | 90 | 1017.9 |
| 20260507094204 | 38 | 212 | 0.0 | 0.0 | 0.00 | 0.00 | 0.00 | 89 | 1017.9 |
| 20260507092704 | 39 | 213 | 0.0 | 0.0 | 0.00 | 0.00 | 0.00 | 88 | 1017.8 |
| 20260507092204 | 39 | 212 | 0.0 | 0.0 | 0.00 | 0.00 | 0.00 | 88 | 1017.9 |
| 20260507091703 | 39 | 212 | 0.0 | 0.0 | 0.00 | 0.00 | 0.00 | 87 | 1017.9 |
| 20260507090704 | 40 | 212 | 0.0 | 0.0 | 0.00 | 0.00 | 0.00 | 87 | 1017.8 |
| 20260507090203 | 40 | 212 | 0.0 | 0.0 | 0.00 | 0.00 | 0.00 | 85 | 1017.5 |
| 20260507085704 | 40 | 212 | 0.0 | 0.0 | 0.00 | 0.00 | 0.00 | 85 | 1017.5 |
| 20260507084704 | 41 | 27 | 0.0 | 0.0 | 0.00 | 0.00 | 0.00 | 83 | 1017.6 |
| 20260507084203 | 42 | 27 | 0.0 | 0.0 | 0.00 | 0.00 | 0.00 | 83 | 1017.6 |
| 20260507083704 | 42 | 27 | 0.0 | 0.0 | 0.00 | 0.00 | 0.00 | 83 | 1017.3 |
| 20260507083203 | 43 | 27 | 0.0 | 1.0 | 0.00 | 0.00 | 0.00 | 83 | 1017.3 |
| 20260507082704 | 43 | 35 | 0.0 | 0.0 | 0.00 | 0.00 | 0.00 | 82 | 1017.4 |
| 20260507081204 | 43 | 19 | 0.0 | 1.0 | 0.00 | 0.00 | 0.00 | 78 | 1017.5 |
| 20260507080704 | 43 | 70 | 0.0 | 1.0 | 0.00 | 0.00 | 0.00 | 78 | 1017.5 |
| 20260507080203 | 43 | 77 | 0.0 | 0.0 | 0.00 | 0.00 | 0.00 | 82 | 1017.6 |
| 20260507075704 | 43 | 75 | 0.0 | 0.0 | 0.00 | 0.00 | 0.00 | 83 | 1017.7 |
| 20260507075204 | 43 | 75 | 0.0 | 0.0 | 0.00 | 0.00 | 0.00 | 81 | 1017.7 |
| 20260507074704 | 42 | 344 | 0.0 | 0.0 | 0.00 | 0.00 | 0.00 | 82 | 1017.7 |
| 20260507074204 | 42 | 344 | 0.0 | 0.0 | 0.00 | 0.00 | 0.00 | 83 | 1017.9 |
| 20260507073703 | 42 | 344 | 0.0 | 0.0 | 0.00 | 0.00 | 0.00 | 83 | 1017.9 |
| 20260507072703 | 42 | 344 | 0.0 | 0.0 | 0.00 | 0.00 | 0.00 | 84 | 1017.9 |
| 20260507072204 | 43 | 344 | 0.0 | 0.0 | 0.00 | 0.00 | 0.00 | 84 | 1018.0 |
| 20260507071703 | 43 | 344 | 0.0 | 0.0 | 0.00 | 0.00 | 0.00 | 84 | 1018.0 |
| 20260507071204 | 43 | 344 | 0.0 | 0.0 | 0.00 | 0.00 | 0.00 | 83 | 1017.8 |
| 20260507070704 | 44 | 344 | 0.0 | 0.0 | 0.00 | 0.00 | 0.00 | 82 | 1017.9 |
| 20260507070203 | 44 | 344 | 0.0 | 0.0 | 0.00 | 0.00 | 0.00 | 82 | 1018.0 |
| 20260507065704 | 44 | 344 | 0.0 | 0.0 | 0.00 | 0.00 | 0.00 | 80 | 1017.9 |
| 20260507065204 | 44 | 34 | 0.0 | 0.0 | 0.00 | 0.00 | 0.00 | 78 | 1017.9 |
| 20260507064703 | 44 | 34 | 0.0 | 0.0 | 0.00 | 0.00 | 0.00 | 77 | 1017.9 |
| 20260507064204 | 45 | 34 | 0.0 | 0.0 | 0.00 | 0.00 | 0.00 | 77 | 1017.8 |
| 20260507063703 | 45 | 34 | 0.0 | 0.0 | 0.00 | 0.00 | 0.00 | 76 | 1017.9 |
| 20260507063204 | 45 | 34 | 0.0 | 0.0 | 0.00 | 0.00 | 0.00 | 75 | 1017.9 |
| 20260507062705 | 45 | 34 | 0.0 | 0.0 | 0.00 | 0.00 | 0.00 | 74 | 1017.9 |
| 20260507062203 | 45 | 34 | 0.0 | 1.0 | 0.00 | 0.00 | 0.00 | 75 | 1017.9 |
| 20260507061704 | 45 | 345 | 0.0 | 1.0 | 0.00 | 0.00 | 0.00 | 75 | 1018.0 |
| 20260507061203 | 46 | 341 | 0.0 | 1.0 | 0.00 | 0.00 | 0.00 | 75 | 1018.0 |
| 20260507060704 | 46 | 341 | 0.0 | 2.0 | 0.00 | 0.00 | 0.00 | 74 | 1018.1 |
| 20260507060204 | 45 | 37 | 0.0 | 1.0 | 0.00 | 0.00 | 0.00 | 76 | 1018.0 |
| 20260507055704 | 46 | 4 | 0.0 | 0.0 | 0.00 | 0.00 | 0.00 | 80 | 1018.0 |
| 20260507055204 | 46 | 4 | 0.0 | 0.0 | 0.00 | 0.00 | 0.00 | 78 | 1018.0 |
| 20260507053704 | 46 | 3 | 0.0 | 0.0 | 0.00 | 0.00 | 0.00 | 77 | 1017.9 |
| 20260507052704 | 47 | 22 | 0.0 | 0.0 | 0.00 | 0.00 | 0.00 | 75 | 1017.8 |
| 20260507052203 | 47 | 282 | 0.0 | 3.0 | 0.00 | 0.00 | 0.00 | 74 | 1017.7 |
| 20260507051703 | 47 | 324 | 0.0 | 2.0 | 0.00 | 0.00 | 0.00 | 71 | 1017.7 |
| 20260507051204 | 47 | 22 | 0.0 | 1.0 | 0.00 | 0.00 | 0.00 | 72 | 1017.7 |
| 20260507050204 | 47 | 321 | 0.0 | 1.0 | 0.00 | 0.00 | 0.00 | 75 | 1017.6 |
| 20260507045704 | 47 | 282 | 0.0 | 1.0 | 0.00 | 0.00 | 0.00 | 73 | 1017.6 |
| 20260507045204 | 47 | 302 | 0.0 | 1.0 | 0.00 | 0.00 | 0.00 | 74 | 1017.6 |
| 20260507044704 | 46 | 6 | 0.0 | 0.0 | 0.00 | 0.00 | 0.00 | 76 | 1017.5 |
| 20260507043703 | 46 | 6 | 0.0 | 0.0 | 0.00 | 0.00 | 0.00 | 78 | 1017.4 |
| 20260507043204 | 47 | 6 | 0.0 | 1.0 | 0.00 | 0.00 | 0.00 | 79 | 1017.5 |
| 20260507042703 | 46 | 12 | 0.0 | 1.0 | 0.00 | 0.00 | 0.00 | 78 | 1017.4 |
| 20260507042204 | 46 | 15 | 0.0 | 0.0 | 0.00 | 0.00 | 0.00 | 80 | 1017.3 |
| 20260507041704 | 46 | 48 | 0.0 | 0.0 | 0.00 | 0.00 | 0.00 | 81 | 1017.3 |
| 20260507041203 | 46 | 48 | 0.0 | 0.0 | 0.00 | 0.00 | 0.00 | 82 | 1017.4 |
| 20260507040204 | 47 | 48 | 0.0 | 0.0 | 0.00 | 0.00 | 0.00 | 81 | 1017.4 |
| 20260507035703 | 47 | 75 | 0.0 | 0.0 | 0.00 | 0.00 | 0.00 | 81 | 1017.5 |
| 20260507035204 | 47 | 75 | 0.0 | 0.0 | 0.00 | 0.00 | 0.00 | 81 | 1017.5 |
| 20260507034704 | 47 | 75 | 0.0 | 0.0 | 0.00 | 0.01 | 0.00 | 81 | 1017.4 |
| 20260507034204 | 48 | 75 | 0.0 | 0.0 | 0.00 | 0.01 | 0.00 | 79 | 1017.4 |
| 20260507033704 | 48 | 75 | 0.0 | 0.0 | 0.00 | 0.01 | 0.00 | 78 | 1017.4 |
| 20260507032703 | 48 | 75 | 0.0 | 0.0 | 0.00 | 0.01 | 0.00 | 77 | 1017.3 |
| 20260507032204 | 49 | 75 | 0.0 | 0.0 | 0.00 | 0.01 | 0.00 | 77 | 1017.2 |
| 20260507031203 | 49 | 75 | 0.0 | 0.0 | 0.00 | 0.01 | 0.00 | 75 | 1017.0 |
| 20260507030704 | 49 | 75 | 0.0 | 0.0 | 0.00 | 0.01 | 0.00 | 76 | 1017.0 |
| 20260507030204 | 49 | 75 | 0.0 | 0.0 | 0.00 | 0.02 | 0.00 | 74 | 1017.0 |
| 20260507025704 | 49 | 75 | 0.0 | 0.0 | 0.00 | 0.02 | 0.00 | 75 | 1017.0 |
| 20260507025204 | 50 | 75 | 0.0 | 0.0 | 0.00 | 0.02 | 0.00 | 76 | 1016.9 |
| 20260507024704 | 50 | 75 | 0.0 | 0.0 | 0.00 | 0.02 | 0.00 | 74 | 1016.9 |
| 20260507024203 | 50 | 22 | 0.0 | 0.0 | 0.00 | 0.02 | 0.00 | 74 | 1016.8 |
| 20260507023704 | 50 | 22 | 0.0 | 0.0 | 0.00 | 0.02 | 0.00 | 74 | 1016.7 |
| 20260507023204 | 50 | 22 | 0.0 | 0.0 | 0.00 | 0.02 | 0.00 | 74 | 1016.7 |
| 20260507022703 | 50 | 23 | 0.0 | 0.0 | 0.00 | 0.02 | 0.00 | 75 | 1016.8 |
| 20260507022204 | 50 | 23 | 0.0 | 0.0 | 0.00 | 0.02 | 0.00 | 76 | 1016.8 |
| 20260507021703 | 50 | 23 | 0.0 | 0.0 | 0.00 | 0.02 | 0.00 | 75 | 1016.8 |
| 20260507020704 | 51 | 23 | 0.0 | 0.0 | 0.00 | 0.02 | 0.00 | 72 | 1016.6 |
| 20260507020203 | 51 | 23 | 0.0 | 0.0 | 0.00 | 0.02 | 0.00 | 73 | 1016.5 |
| 20260507015704 | 51 | 23 | 0.0 | 0.0 | 0.00 | 0.02 | 0.00 | 75 | 1016.6 |
| 20260507014703 | 52 | 23 | 0.0 | 0.0 | 0.00 | 0.02 | 0.00 | 72 | 1016.4 |
| 20260507014204 | 52 | 23 | 0.0 | 0.0 | 0.00 | 0.02 | 0.00 | 75 | 1016.3 |
| 20260507013204 | 53 | 23 | 0.0 | 0.0 | 0.00 | 0.02 | 0.00 | 72 | 1016.3 |
| 20260507011703 | 55 | 23 | 0.0 | 0.0 | 0.00 | 0.02 | 0.00 | 72 | 1016.2 |
| 20260507011204 | 56 | 23 | 0.0 | 0.0 | 0.00 | 0.02 | 0.00 | 71 | 1016.0 |
| 20260507010704 | 56 | 23 | 0.0 | 0.0 | 0.00 | 0.02 | 0.00 | 69 | 1015.9 |
| 20260507005704 | 58 | 37 | 0.0 | 1.0 | 0.00 | 0.02 | 0.00 | 65 | 1016.0 |
| 20260507005204 | 59 | 44 | 0.0 | 0.0 | 0.00 | 0.02 | 0.00 | 65 | 1015.8 |
| 20260507004703 | 60 | 44 | 0.0 | 0.0 | 0.00 | 0.02 | 0.00 | 66 | 1015.9 |
| 20260507004204 | 59 | 44 | 0.0 | 0.0 | 0.00 | 0.02 | 0.00 | 64 | 1015.9 |
| 20260507003203 | 58 | 44 | 0.0 | 1.0 | 0.00 | 0.02 | 0.00 | 61 | 1015.7 |
| 20260507002704 | 58 | 44 | 0.0 | 0.0 | 0.00 | 0.02 | 0.00 | 58 | 1015.8 |
| 20260507002204 | 59 | 44 | 0.0 | 1.0 | 0.00 | 0.02 | 0.00 | 56 | 1015.8 |
| 20260507001204 | 60 | 43 | 0.0 | 0.0 | 0.00 | 0.02 | 0.00 | 55 | 1015.7 |
| 20260507000704 | 61 | 43 | 0.0 | 3.0 | 0.00 | 0.02 | 0.00 | 53 | 1015.6 |
| 20260507000205 | 61 | 57 | 1.0 | 3.0 | 0.00 | 0.02 | 0.00 | 52 | 1015.5 |
| 20260506235703 | 62 | 26 | 1.0 | 3.0 | 0.00 | 0.02 | 0.00 | 51 | 1015.5 |
| 20260506235204 | 61 | 256 | 1.0 | 3.0 | 0.00 | 0.02 | 0.00 | 50 | 1015.5 |
| 20260506234703 | 61 | 43 | 1.0 | 3.0 | 0.00 | 0.02 | 0.00 | 51 | 1015.4 |
| 20260506233704 | 62 | 353 | 1.0 | 7.0 | 0.00 | 0.02 | 0.00 | 52 | 1015.2 |
| 20260506232704 | 61 | 349 | 3.0 | 8.0 | 0.00 | 0.02 | 0.00 | 51 | 1014.9 |
| 20260506232204 | 61 | 34 | 2.0 | 6.0 | 0.00 | 0.02 | 0.00 | 52 | 1014.8 |
| 20260506231203 | 61 | 76 | 3.0 | 12.0 | 0.00 | 0.02 | 0.00 | 53 | 1014.7 |
| 20260506230704 | 61 | 351 | 3.0 | 12.0 | 0.00 | 0.02 | 0.00 | 53 | 1014.7 |
| 20260506225704 | 61 | 36 | 3.0 | 13.0 | 0.00 | 0.02 | 0.00 | 53 | 1014.6 |
| 20260506225203 | 61 | 31 | 3.0 | 12.0 | 0.00 | 0.02 | 0.00 | 53 | 1014.6 |
| 20260506224704 | 61 | 50 | 3.0 | 9.0 | 0.00 | 0.02 | 0.00 | 52 | 1014.8 |
| 20260506223704 | 61 | 41 | 2.0 | 7.0 | 0.00 | 0.02 | 0.00 | 54 | 1014.9 |
| 20260506223204 | 61 | 19 | 2.0 | 3.0 | 0.00 | 0.02 | 0.00 | 54 | 1014.9 |
| 20260506222703 | 60 | 4 | 2.0 | 5.0 | 0.00 | 0.02 | 0.00 | 52 | 1014.9 |
| 20260506222204 | 61 | 320 | 2.0 | 7.0 | 0.00 | 0.02 | 0.00 | 53 | 1014.9 |
| 20260506221704 | 61 | 24 | 3.0 | 7.0 | 0.00 | 0.02 | 0.00 | 52 | 1014.8 |
| 20260506221204 | 62 | 355 | 2.0 | 5.0 | 0.00 | 0.02 | 0.00 | 52 | 1014.8 |
| 20260506220704 | 62 | 2 | 2.0 | 9.0 | 0.00 | 0.02 | 0.00 | 51 | 1014.7 |
| 20260506215704 | 63 | 340 | 2.0 | 7.0 | 0.00 | 0.02 | 0.00 | 52 | 1014.7 |
| 20260506215203 | 63 | 282 | 2.0 | 6.0 | 0.00 | 0.02 | 0.00 | 55 | 1014.8 |
| 20260506214704 | 63 | 313 | 0.0 | 1.0 | 0.00 | 0.02 | 0.00 | 55 | 1014.8 |
| 20260506214204 | 62 | 288 | 2.0 | 7.0 | 0.00 | 0.02 | 0.00 | 54 | 1014.9 |
| 20260506213204 | 63 | 28 | 4.0 | 12.0 | 0.00 | 0.02 | 0.00 | 52 | 1015.0 |
| 20260506212704 | 63 | 291 | 1.0 | 5.0 | 0.00 | 0.02 | 0.00 | 53 | 1014.9 |
| 20260506212203 | 63 | 314 | 3.0 | 7.0 | 0.00 | 0.02 | 0.00 | 52 | 1015.0 |
| 20260506211704 | 63 | 248 | 2.0 | 3.0 | 0.00 | 0.02 | 0.00 | 54 | 1015.2 |
| 20260506211204 | 62 | 44 | 1.0 | 3.0 | 0.00 | 0.02 | 0.00 | 54 | 1015.5 |